Regional Weather Roundup
Issued by NWS Bismarck, ND

Home | Current Version | Previous Version | Text Only | Print | Product List | Glossary On
Versions: 1 2 3 4 5 6 7 8 9 10 11 12 13 14 15 16 17 18 19 20 21 22 23 24 25 26 27 28 29 30 31 32 33 34 35 36 37 38 39 40 41 42 43 44 45 46 47 48 49 50
000
ASUS43 KBIS 072310
RWRBIS

NWR BROADCAST TEXT
NATIONAL WEATHER SERVICE BISMARCK ND
500 PM CST SUN FEB 07 2016

NOTE: "FAIR" INDICATES FEW OR NO CLOUDS BELOW 12,000 FEET WITH NO
SIGNIFICANT WEATHER AND/OR OBSTRUCTIONS TO VISIBILITY.


CITY           SKY/WX    TMP DP  RH WIND       PRES   REMARKS
WILLISTON      CLEAR     35  20  54 NW31      30.21R
MINOT          CLOUDY    33  17  51 NW32G51   30.07R WCI  19
MINOT AFB      MOCLDY    30  19  63 NW32G40   30.06R WCI  15
BISMARCK       PTCLDY    38  16  40 NW31G56   30.05R
DICKINSON      CLOUDY    33  13  43 NW33G44   30.13R WCI  18
GARRISON         N/A     34  18  52 NW44G54   30.04R WCI  18
HETTINGER ARPT MOCLDY    34  12  40 NW40G54   30.15R WCI  18
JAMESTOWN      FLURRIES  23  15  71 NW33G40   29.92R WCI   5
BEACH          CLOUDY    34  14  44 NW36G47   30.26R WCI  19
CARRINGTON     CLOUDY    23  19  86 NW31G47   29.97R WCI   5
HAZEN          MOCLDY    36  18  48 NW28G33   30.13R
LINTON         FAIR      32  19  59 NW36G47   30.02R WCI  16
OAKES          LGT SNOW  23  19  86 N30G38    29.91R WCI   5
STANLEY        FAIR      32  21  64 NW29G39   30.11R WCI  18
TIOGA          FLURRIES  32  21  64 NW29G40   30.18R WCI  18
$$

CITY           SKY/WX    TMP DP  RH WIND       PRES   REMARKS
GRAND FORKS    SNOW      17  10  74 N25G38    29.92R VSB 1/4 WCI  -1
GRAND FORKS AF NOT AVBL
DEVILS LAKE    LGT SNOW  19  16  88 NW30G37   29.94R FOG     WCI   0
FARGO          FLURRIES  20  14  77 N30G38    29.89R WCI   1
GRAFTON        LGT SNOW  14   7  73 N32G41    29.94R WCI  -7
GWINNER        CLOUDY    25  19  80 NW30G47   29.91R WCI   8
LANGDON        LGT SNOW  16  12  86 N21       29.90R WCI  -2
ROLLA          LGT SNOW  18  12  79 NW41G51   29.96R WCI  -5
WALHALLA       FLURRIES  16  10  79 N29G38    29.96R WCI  -4
$$

CITY           SKY/WX    TMP DP  RH WIND       PRES   REMARKS
ABERDEEN       LGT SNOW  29  20  69 NW24G39   29.95R WCI  15
MOBRIDGE       CLOUDY    37  18  46 NW43G56   29.98R
BUFFALO          N/A     37  11  34 NW43G54   30.13R
RAPID CITY     SUNNY     38   6  26 NW38G49   30.18R
GLASGOW        SUNNY     36  20  52 NW24G31   30.34R
SIDNEY         PTCLDY    37  16  41 NW24G38   30.26R
WOLF POINT     CLOUDY    39  20  46 NW29G38   30.32R
GLENDIVE       CLEAR     36  16  44 NW26G36   30.31R
MILES CITY     MOSUNNY   39  12  33 NW26G39   30.35R
BAKER          PTCLDY    35  11  36 NW31G48   30.26R
$$

CITY           SKY/WX    TMP DP  RH WIND       PRES   REMARKS
BILLINGS       MOSUNNY   41   9  26 N15       30.41R
GREAT FALLS    SUNNY     43  11  27 SW10      30.41S
REGINA         PTCLDY    30  19  64 NW25G35   30.22R WCI  16
ESTEVAN        MOCLDY    30  23  74 NW31G39   30.15R WCI  15
$$




USA.gov is the U.S. government's official web portal to all federal, state and local government web resources and services.